Language: 


Des rapports , des résumés tant et plus, au choix de chacun....


Données Historiques de Météogheer
Journalier Rapport pour Mars 4, 2018 Unitée:  Impériale    Métrique   Les deux
Suivant Jour »
Journalier Hebdomadaire Mensuel Annuel Sur mesure
  Max: Min: Moyenne:
Température: 52.9 °F 34.3 °F 39.6 °F
Point de rosée: 44.6 °F 33.8 °F 37.9 °F
Humidité: 98% 53% 92%
Vent: 8.5mph 0mph 1.6mph
Rafales: 11mph - -
Vent- - South
Pression: 29.4 in 29.2 in -
Pluie: 0.17 in    
Historical Graphs
 
 
Données tabulaires pour Mars 4, 2018
Heure Température Point de rosée Pression Vent Vent Rafales Humidité Pluie Taux (Horaire) Conditions
00:04 36.9 °F 33.8 °F 29.4 in Calm   6.3 mph 89% 0 in
00:09 36.9 °F 33.8 °F 29.4 in SSE 3.4 mph 5.8 mph 90% 0 in
00:14 37 °F 35.6 °F 29.3 in SE 3.6 mph 6 mph 91% 0 in
00:19 37 °F 35.6 °F 29.3 in SSE 3.6 mph 7.6 mph 90% 0 in
00:24 37 °F 35.6 °F 29.3 in Calm   7.6 mph 91% 0 in
00:29 37 °F 35.6 °F 29.4 in SE 6 mph 6.5 mph 91% 0 in
00:34 36.9 °F 33.8 °F 29.4 in SSE 3.6 mph 6.5 mph 90% 0 in
00:39 36.9 °F 33.8 °F 29.4 in Calm   6 mph 90% 0 in
00:50 36.7 °F 33.8 °F 29.3 in Calm   4.9 mph 90% 0 in
00:55 36.5 °F 33.8 °F 29.3 in SSE 3.4 mph 5.6 mph 90% 0 in
01:00 36.5 °F 35.6 °F 29.4 in South 4.9 mph 8.7 mph 91% 0 in
01:05 36.5 °F 35.6 °F 29.4 in Calm   8.7 mph 92% 0 in
01:10 36.3 °F 33.8 °F 29.4 in SSE 4 mph 6.5 mph 91% 0 in
01:15 36.3 °F 33.8 °F 29.4 in Calm   4 mph 90% 0 in
01:20 36.1 °F 33.8 °F 29.4 in Calm   3.1 mph 90% 0 in
01:25 36.1 °F 33.8 °F 29.4 in Calm   1.3 mph 90% 0 in
01:30 36.1 °F 33.8 °F 29.4 in Calm   1.1 mph 90% 0 in
01:36 36.1 °F 33.8 °F 29.4 in Calm   1.1 mph 91% 0 in
01:41 36.1 °F 33.8 °F 29.4 in Calm     91% 0 in
01:46 36.3 °F 33.8 °F 29.3 in Calm     92% 0 in
01:51 36.5 °F 35.6 °F 29.3 in Calm   2.9 mph 92% 0 in
01:56 36.7 °F 35.6 °F 29.3 in South 0.9 mph 4.9 mph 93% 0 in
02:01 36.7 °F 35.6 °F 29.3 in Calm   4.9 mph 93% 0 in
02:06 36.7 °F 35.6 °F 29.3 in Calm   1.1 mph 92% 0 in
02:11 36.7 °F 35.6 °F 29.3 in Calm   1.6 mph 92% 0 in
02:16 36.9 °F 35.6 °F 29.3 in Calm   1.6 mph 92% 0 in
02:21 36.9 °F 35.6 °F 29.3 in Calm   4.7 mph 93% 0 in
02:26 37 °F 35.6 °F 29.3 in Calm   4.7 mph 93% 0 in
02:31 37 °F 35.6 °F 29.3 in Calm   2.9 mph 93% 0 in
02:36 37.2 °F 35.6 °F 29.3 in Calm   3.4 mph 93% 0 in
02:41 37.2 °F 35.6 °F 29.3 in Calm   3.4 mph 94% 0 in
02:46 37.2 °F 35.6 °F 29.3 in SSE 3.1 mph 3.1 mph 94% 0 in
02:51 37.4 °F 35.6 °F 29.3 in Calm   3.1 mph 93% 0 in
02:56 37.2 °F 35.6 °F 29.3 in Calm   1.6 mph 94% 0 in
03:01 37.4 °F 35.6 °F 29.3 in Calm   3.8 mph 93% 0 in
03:06 37.4 °F 35.6 °F 29.3 in Calm   5.4 mph 94% 0 in
03:11 37.6 °F 35.6 °F 29.3 in Calm   5.4 mph 94% 0 in
03:16 37.6 °F 35.6 °F 29.3 in SSE 2.5 mph 3.4 mph 94% 0 in
03:21 37.8 °F 37.4 °F 29.3 in Calm   4.3 mph 94% 0 in
03:26 37.6 °F 35.6 °F 29.3 in Calm   4.3 mph 94% 0 in
03:31 37.4 °F 35.6 °F 29.3 in South 4.9 mph 4.9 mph 93% 0 in
03:36 37.4 °F 35.6 °F 29.3 in Calm   4.9 mph 93% 0 in
03:41 37.2 °F 35.6 °F 29.3 in Calm   4 mph 93% 0 in
03:46 37 °F 35.6 °F 29.3 in Calm   0.9 mph 93% 0 in
03:51 37 °F 35.6 °F 29.3 in Calm   0.9 mph 93% 0 in
03:56 36.9 °F 35.6 °F 29.3 in Calm     93% 0 in
04:01 36.9 °F 35.6 °F 29.3 in Calm   0.9 mph 93% 0 in
04:06 37 °F 35.6 °F 29.3 in Calm   4.5 mph 94% 0 in
04:11 37.2 °F 37.4 °F 29.3 in SSE 3.8 mph 4.5 mph 96% 0 in
04:16 37 °F 37.4 °F 29.3 in Calm   4.7 mph 96% 0 in
04:21 37 °F 37.4 °F 29.3 in Calm   4.7 mph 96% 0 in
04:26 36.9 °F 35.6 °F 29.3 in Calm   2.9 mph 95% 0 in
04:31 36.9 °F 35.6 °F 29.3 in Calm   3.8 mph 95% 0 in
04:36 36.7 °F 35.6 °F 29.3 in Calm   3.8 mph 95% 0 in
04:41 36.5 °F 35.6 °F 29.3 in Calm   3.8 mph 95% 0 in
04:46 36.5 °F 35.6 °F 29.3 in Calm   3.8 mph 95% 0 in
04:51 36.7 °F 37.4 °F 29.3 in WNW 2.2 mph 5.4 mph 96% 0 in
04:56 36.7 °F 37.4 °F 29.3 in South 0.9 mph 5.4 mph 96% 0 in
05:01 36.3 °F 35.6 °F 29.3 in South 0.9 mph 3.8 mph 96% 0 in
05:07 36.1 °F 35.6 °F 29.3 in Calm   3.8 mph 95% 0 in
05:12 36 °F 35.6 °F 29.3 in Calm   2.7 mph 95% 0 in
05:17 35.8 °F 33.8 °F 29.3 in Calm   3.8 mph 94% 0 in
05:22 35.6 °F 33.8 °F 29.3 in Calm   3.8 mph 94% 0 in
05:27 35.6 °F 33.8 °F 29.3 in Calm     94% 0 in
05:32 35.4 °F 33.8 °F 29.3 in Calm   0.9 mph 95% 0 in
05:37 35.4 °F 33.8 °F 29.3 in SE 1.6 mph 2 mph 95% 0 in
05:42 35.4 °F 35.6 °F 29.3 in Calm   2.5 mph 96% 0 in
05:47 35.4 °F 35.6 °F 29.3 in Calm   3.1 mph 96% 0 in
05:52 35.4 °F 35.6 °F 29.3 in Calm   3.1 mph 96% 0 in
05:57 35.4 °F 35.6 °F 29.3 in Calm   2.5 mph 96% 0 in
06:02 35.4 °F 35.6 °F 29.3 in Calm   3.1 mph 97% 0 in
06:07 35.6 °F 35.6 °F 29.3 in Calm   3.1 mph 96% 0 in
06:12 35.6 °F 35.6 °F 29.3 in Calm   0.9 mph 97% 0 in
06:17 35.4 °F 35.6 °F 29.3 in Calm   0.9 mph 97% 0 in
06:22 35.1 °F 33.8 °F 29.3 in Calm   1.3 mph 96% 0 in
06:27 35.1 °F 33.8 °F 29.3 in Calm   1.3 mph 96% 0 in
06:32 34.9 °F 33.8 °F 29.3 in Calm   1.6 mph 96% 0 in
06:37 34.9 °F 33.8 °F 29.3 in Calm   1.6 mph 96% 0 in
06:42 34.7 °F 33.8 °F 29.3 in Calm     96% 0 in
06:47 34.7 °F 33.8 °F 29.3 in Calm   3.4 mph 96% 0 in
06:52 34.7 °F 33.8 °F 29.3 in SSW 0.9 mph 3.4 mph 96% 0 in
06:58 34.9 °F 33.8 °F 29.3 in Calm   2 mph 96% 0 in
07:02 35.1 °F 33.8 °F 29.3 in Calm   1.3 mph 97% 0 in
07:08 35.1 °F 33.8 °F 29.3 in Calm   1.3 mph 97% 0 in
07:12 35.1 °F 33.8 °F 29.3 in Calm     97% 0 in
07:17 35.1 °F 33.8 °F 29.3 in Calm     97% 0 in
07:22 34.5 °F 33.8 °F 29.3 in Calm     96% 0 in
07:27 34.5 °F 33.8 °F 29.3 in Calm     96% 0 in
07:33 34.5 °F 33.8 °F 29.3 in Calm     96% 0 in
07:38 34.5 °F 33.8 °F 29.3 in Calm     96% 0 in
07:43 34.3 °F 33.8 °F 29.3 in Calm     96% 0 in
07:48 34.3 °F 33.8 °F 29.3 in Calm     96% 0 in
07:53 34.3 °F 33.8 °F 29.3 in Calm     96% 0 in
07:58 34.3 °F 33.8 °F 29.3 in Calm     96% 0 in
08:03 34.3 °F 33.8 °F 29.3 in Calm     96% 0 in
08:08 34.3 °F 33.8 °F 29.3 in Calm   3.6 mph 96% 0 in
08:13 34.3 °F 33.8 °F 29.3 in Calm   3.6 mph 96% 0 in
08:18 34.3 °F 33.8 °F 29.3 in Calm   3.4 mph 96% 0 in
08:23 34.3 °F 33.8 °F 29.3 in Calm   4 mph 96% 0 in
08:28 37 °F 37.4 °F 29.3 in Calm   4 mph 98% 0 in
08:33 37.6 °F 37.4 °F 29.3 in Calm   3.8 mph 98% 0 in
08:38 38.1 °F 37.4 °F 29.3 in Calm   4.9 mph 98% 0 in
08:43 38.1 °F 37.4 °F 29.3 in SE 4.7 mph 4.9 mph 98% 0 in
08:48 38.1 °F 37.4 °F 29.3 in SSE 5.8 mph 7.4 mph 98% 0 in
08:53 38.1 °F 37.4 °F 29.3 in SSE 3.4 mph 7.4 mph 98% 0 in
08:58 38.1 °F 37.4 °F 29.3 in Calm   5.8 mph 98% 0 in
09:03 40.3 °F 39.2 °F 29.3 in South 0.9 mph 5.8 mph 97% 0 in
09:08 40.3 °F 39.2 °F 29.3 in Calm   5.8 mph 97% 0 in
09:13 40.3 °F 39.2 °F 29.3 in Calm   5.6 mph 97% 0 in
09:18 40.3 °F 39.2 °F 29.3 in Calm   5.6 mph 97% 0 in
09:23 40.3 °F 39.2 °F 29.3 in South 2.7 mph 6.3 mph 97% 0 in
09:28 40.3 °F 39.2 °F 29.3 in South 3.1 mph 6.3 mph 97% 0 in
09:33 40.3 °F 39.2 °F 29.3 in SSE 5.4 mph 5.4 mph 97% 0 in
09:38 40.3 °F 39.2 °F 29.3 in South 6.3 mph 6.3 mph 97% 0 in
09:43 40.3 °F 39.2 °F 29.3 in SSE 2.7 mph 6.3 mph 97% 0 in
09:48 40.3 °F 39.2 °F 29.3 in Calm   6.3 mph 97% 0 in
09:53 40.3 °F 39.2 °F 29.3 in Calm   3.4 mph 97% 0 in
09:58 44.1 °F 41 °F 29.3 in SSE 3.6 mph 6 mph 85% 0 in
10:10 44.1 °F 41 °F 29.3 in South 3.4 mph 8.5 mph 85% 0 in
10:20 47.3 °F 42.8 °F 29.3 in South 7.4 mph 7.4 mph 81% 0 in
10:29 47.3 °F 41 °F 29.3 in Calm   8.1 mph 78% 0 in
10:35 47.8 °F 41 °F 29.3 in South 4.3 mph 6.5 mph 75% 0 in
10:40 47.8 °F 41 °F 29.3 in SSE 2.5 mph 6.5 mph 75% 0 in
11:10 52.9 °F 37.4 °F 29.3 in South 4 mph 6.5 mph 53% 0 in
11:25 49.5 °F 37.4 °F 29.3 in South 6 mph 7.8 mph 63% 0 in
11:30 48.9 °F 37.4 °F 29.3 in SSE 6.3 mph 7.8 mph 65% 0 in
11:40 47.8 °F 39.2 °F 29.3 in Calm   6.5 mph 69% 0 in
11:50 47.3 °F 39.2 °F 29.3 in Calm   6.3 mph 71% 0 in
12:00 46.9 °F 39.2 °F 29.3 in Calm   4 mph 73% 0 in
12:10 46.8 °F 39.2 °F 29.3 in East 4.5 mph 4.9 mph 74% 0 in
12:20 46.8 °F 39.2 °F 29.2 in Calm   4.5 mph 75% 0 in
12:30 46.6 °F 39.2 °F 29.3 in SSE 3.8 mph 6 mph 75% 0 in
12:40 46.9 °F 41 °F 29.3 in SE 3.4 mph 6 mph 76% 0 in
12:50 46.9 °F 41 °F 29.3 in Calm   4 mph 76% 0 in
13:00 47.1 °F 41 °F 29.2 in SSE 2.9 mph 5.4 mph 76% 0 in
13:10 47.1 °F 41 °F 29.2 in Calm   7.6 mph 76% 0 in
13:20 47.1 °F 41 °F 29.2 in SSE 4.7 mph 8.7 mph 76% 0 in
13:30 46.9 °F 41 °F 29.2 in Calm   7.6 mph 77% 0 in
13:40 46.8 °F 41 °F 29.2 in Calm   6 mph 79% 0 in
13:50 46.8 °F 41 °F 29.3 in Calm   7.8 mph 81% 0 in
14:00 46.6 °F 41 °F 29.3 in ESE 6.5 mph 6.5 mph 81% 0 in
14:10 46.4 °F 41 °F 29.3 in Calm   6.5 mph 81% 0 in
14:20 46.4 °F 42.8 °F 29.2 in Calm   1.6 mph 82% 0 in
14:30 46.4 °F 42.8 °F 29.2 in Calm   1.3 mph 82% 0.01 in
14:40 46.4 °F 42.8 °F 29.2 in Calm   3.6 mph 83% 0.01 in
14:50 46.2 °F 42.8 °F 29.2 in Calm   4.3 mph 84% 0.01 in
15:00 46.2 °F 42.8 °F 29.2 in Calm   1.1 mph 85% 0.01 in
15:10 46 °F 42.8 °F 29.2 in Calm   2.9 mph 86% 0.01 in
15:20 46 °F 42.8 °F 29.2 in Calm   4.9 mph 87% 0.01 in
15:30 45.9 °F 42.8 °F 29.2 in Calm   1.6 mph 86% 0 in
15:40 45.7 °F 42.8 °F 29.2 in Calm   3.1 mph 87% 0 in
15:50 45.5 °F 42.8 °F 29.2 in Calm   1.6 mph 87% 0 in
16:00 45.3 °F 42.8 °F 29.2 in Calm   3.8 mph 88% 0 in
16:10 45.1 °F 42.8 °F 29.2 in Calm   4 mph 89% 0.01 in
16:20 45 °F 42.8 °F 29.2 in ESE 2.5 mph 4.3 mph 90% 0.01 in
16:30 44.8 °F 42.8 °F 29.2 in Calm   3.1 mph 90% 0.02 in
16:40 44.6 °F 42.8 °F 29.2 in Calm   4.7 mph 91% 0.02 in
16:50 44.2 °F 42.8 °F 29.2 in Calm   5.6 mph 92% 0.03 in
17:00 44.1 °F 42.8 °F 29.2 in Calm   3.8 mph 92% 0.05 in
17:10 43.9 °F 42.8 °F 29.2 in Calm   3.6 mph 93% 0.05 in
17:20 43.9 °F 42.8 °F 29.2 in Calm   6.5 mph 95% 0.06 in
17:30 43.7 °F 42.8 °F 29.2 in Calm     95% 0.06 in
17:45 43.9 °F 42.8 °F 29.2 in SSE 3.6 mph 6.5 mph 97% 0.06 in
17:50 43.9 °F 42.8 °F 29.2 in Calm   11 mph 97% 0.06 in
18:00 43.7 °F 44.6 °F 29.2 in South 5.6 mph 9.8 mph 98% 0.07 in
18:10 43.5 °F 42.8 °F 29.2 in SSW 4.5 mph 9.8 mph 98% 0.07 in
18:20 43.3 °F 42.8 °F 29.2 in Calm   7.6 mph 98% 0.06 in
18:30 43 °F 42.8 °F 29.2 in WSW 8.5 mph 8.7 mph 98% 0.06 in
18:40 42.4 °F 42.8 °F 29.2 in SW 7.4 mph 8.1 mph 98% 0.05 in
18:50 42.1 °F 42.8 °F 29.2 in SW 6.3 mph 6.5 mph 98% 0.03 in
19:00 41.7 °F 42.8 °F 29.2 in SW 4 mph 7.8 mph 98% 0.02 in
19:10 41.7 °F 42.8 °F 29.2 in SW 4.9 mph 10.1 mph 98% 0.01 in
19:20 41.7 °F 42.8 °F 29.2 in SW 5.6 mph 8.9 mph 98% 0.01 in
19:30 41.5 °F 42.8 °F 29.2 in WSW 6 mph 7.6 mph 98% 0 in
19:40 41.4 °F 41 °F 29.2 in WSW 5.4 mph 7.6 mph 98% 0 in
19:50 41 °F 41 °F 29.2 in SW 8.5 mph 8.5 mph 98% 0 in
20:00 40.6 °F 41 °F 29.2 in SW 4.9 mph 7.8 mph 98% 0 in
20:10 40.5 °F 41 °F 29.2 in SSW 3.8 mph 7.8 mph 98% 0 in
20:20 40.3 °F 41 °F 29.2 in SSW 5.6 mph 8.5 mph 98% 0 in
20:30 40.3 °F 41 °F 29.2 in WSW 6 mph 10.1 mph 98% 0 in
20:40 40.3 °F 41 °F 29.2 in SW 7.4 mph 9.6 mph 98% 0 in
20:50 40.3 °F 41 °F 29.2 in WSW 6.3 mph 7.8 mph 98% 0 in
21:00 40.3 °F 41 °F 29.2 in SSW 4.5 mph 7.4 mph 98% 0.01 in
21:10 40.3 °F 41 °F 29.2 in SW 4.9 mph 6.3 mph 98% 0.01 in
21:20 40.5 °F 41 °F 29.2 in SSW 4.9 mph 10.1 mph 98% 0.01 in
21:30 40.6 °F 41 °F 29.2 in SW 4.3 mph 7.6 mph 98% 0.01 in
21:45 40.5 °F 41 °F 29.2 in SSW 2.9 mph 6.5 mph 98% 0.01 in
21:50 40.5 °F 41 °F 29.3 in SSW 2 mph 6.9 mph 98% 0.01 in
22:00 40.1 °F 41 °F 29.3 in South 4 mph 6.5 mph 98% 0 in
22:10 39.7 °F 39.2 °F 29.3 in Calm   5.4 mph 98% 0 in
22:20 39.6 °F 39.2 °F 29.3 in Calm   4.9 mph 98% 0 in
22:34 39.4 °F 39.2 °F 29.3 in SSW 3.4 mph 3.4 mph 98% 0 in
22:40 39.4 °F 39.2 °F 29.3 in South 4 mph 4 mph 98% 0 in
22:50 39.9 °F 39.2 °F 29.2 in South 4.3 mph 8.1 mph 98% 0 in
23:00 40.3 °F 41 °F 29.2 in South 4.9 mph 9.2 mph 98% 0 in
23:10 40.1 °F 41 °F 29.2 in SSW 4 mph 8.5 mph 98% 0 in
23:20 40.3 °F 41 °F 29.3 in South 4.3 mph 9.6 mph 98% 0 in
23:30 40.3 °F 41 °F 29.3 in SSW 7.2 mph 7.2 mph 98% 0 in
23:40 40.3 °F 41 °F 29.3 in Calm   7.2 mph 98% 0 in
23:50 40.3 °F 41 °F 29.3 in Calm     98% 0 in
Données Historique de Météo Turbie

Mise a jour : 18/06/2018 07:51:12
Généré par Cumulus 1.9.4 (1099)